Regional Weather Roundup
Issued by NWS

Home | Current Version | Previous Version | Graphics & Text | Print | Product List | Glossary On
Versions: 1 2 3 4 5 6 7 8 9 10 11 12 13 14 15 16 17 18 19 20 21 22 23 24 25 26 27 28 29 30 31 32 33 34 35 36 37 38 39 40 41 42 43 44 45 46 47 48 49 50
000
ASUS43 KMKX 250925
RWRWI

WISCONSIN REGIONAL WEATHER ROUNDUP
NATIONAL WEATHER SERVICE MILWAUKEE/SULLIVAN WI
400 AM CDT SAT OCT 25 2014

NOTE: "FAIR" INDICATES FEW OR NO CLOUDS BELOW 12,000 FEET WITH NO
SIGNIFICANT WEATHER AND/OR OBSTRUCTIONS TO VISIBILITY.

WIZ001-002-006>008-014>016-023>028-251000-
NORTHWEST WISCONSIN

CITY           SKY/WX    TMP DP  RH WIND       PRES   REMARKS
SUPERIOR ARPT  CLEAR     48  36  63 SW8       29.84R
ASHLAND        CLEAR     51  38  60 SW9       29.81S
HAYWARD        CLEAR     53  37  54 VRB5      29.86S
SIREN          CLEAR     51  36  57 W7        29.90S
CUMBERLAND     CLEAR     50  36  57 W8        29.89S
RICE LAKE      CLEAR     48  40  72 W3        29.90F
CHETEK         CLEAR     52  40  64 W6        29.89S
LADYSMITH      CLEAR     52  43  72 W10       29.88S
EAU CLAIRE     CLEAR     47  43  86 SW5       29.89S
MENOMONIE      CLEAR     53  41  65 W6        29.91S
NEW RICHMOND   CLEAR     52  38  58 NW9       29.93S
OSCEOLA        CLEAR     54  38  54 W8        29.95F
$$

WIZ003>005-009-010-017-018-251000-
NORTH CENTRAL WISCONSIN

CITY           SKY/WX    TMP DP  RH WIND       PRES   REMARKS
MANITOWISH WTR CLEAR     48  46  90 W7        29.80S
ARBOR VITAE    CLEAR     52  46  82 W7        29.80S
WOODRUFF       CLEAR     52  46  82 W7        29.80S
RHINELANDER    CLEAR     49  46  90 W8        29.81F
EAGLE RIVER    CLEAR     51  46  83 W12       29.79S
LAND O LAKES   CLEAR     51  46  83 W8        29.78S
PHILLIPS       CLEAR     49  45  85 W5        29.83S
TOMAHAWK       CLEAR     50  47  88 W7        29.83S
MEDFORD        CLEAR     50  48  94 W8        29.85S
MERRILL        CLEAR     51  51  98 W8        29.83S FOG
$$

WIZ029-030-035-036-043>047-251000-
CENTRAL WISCONSIN

CITY           SKY/WX    TMP DP  RH WIND       PRES   REMARKS
WAUSAU         PTCLDY    53  51  93 W10       29.82S
MOSINEE        PTCLDY    52  52 100 W7        29.85F FOG
MARSHFIELD     CLEAR     52  50  93 W8        29.86S FOG
STEVENS POINT  MOCLDY    52  51  97 W6        29.85S FOG
WAUPACA        PTCLDY    56  55  94 W7        29.84S FOG
WAUTOMA        CLOUDY    56  54  93 W8        29.86S FOG
WISC RAPIDS    CLEAR     54  52  93 W7        29.87F FOG
CAMP DOUGLAS   NOT AVBL
$$

WIZ011>013-019>022-031-037>040-048>050-251000-
NORTHEAST WISCONSIN

CITY           SKY/WX    TMP DP  RH WIND       PRES   REMARKS
ANTIGO         PTCLDY    51  50  97 W10       29.81S FOG
SHAWANO        PTCLDY    57  53  89 W6        29.80F FOG
OCONTO         PTCLDY    54  54 100 W12       29.77F
STURGEON BAY   CLEAR     54  50  87 W9        29.78S
GREEN BAY      PTCLDY    56  54  93 W14       29.80S FOG
MANITOWOC      CLOUDY    57  54  89 W12G20    29.80F
APPLETON       CLOUDY    54  54 100 W10       29.83S FOG
CLINTONVILLE   PTCLDY    55  52  88 W8        29.81S
OSHKOSH        CLOUDY    56  54  93 W10       29.84R FOG
$$

WIZ032>034-041-042-053>061-251000-
SOUTHWEST WISCONSIN

CITY           SKY/WX    TMP DP  RH WIND       PRES   REMARKS
LA CROSSE      FOG       52  51  97 CALM      29.91R VSB 3/4
SPARTA         FOG       50  49  97 CALM      29.91R VSB 1/2
VIROQUA        CLEAR     53  53 100 W6        29.92S
BOSCOBEL       FOG       55  53  93 SW6       29.92S VSB 1/4
PRAIRIE DU CHI CLEAR     55  53  94 NW3       29.93R FOG
PLATTEVILLE    MOCLDY    56  56  97 CALM      29.94R
$$

WIZ056-057-062-063-064-067-068-251000-
SOUTH CENTRAL WISCONSIN

CITY           SKY/WX    TMP DP  RH WIND       PRES   REMARKS
REEDSBURG      CLEAR     54  53  95 SW6       29.88F
BARABOO/DELLS  CLEAR     55  52  92 W7        29.88S FOG
LONE ROCK      PTCLDY    60  55  83 W5        29.90S HAZE
MINERAL POINT  CLOUDY    55  54  94 W6        29.92S FOG
MADISON        CLEAR     57  54  89 W6        29.88S
MIDDLETON      CLEAR     57  56  97 W10       29.89R
WATERTOWN      CLOUDY    52  52 100 SW5       29.87F FOG
MONROE         MOCLDY    55  55 100 W13G20    29.90S FOG
JANESVILLE     CLOUDY    59  55  88 W6        29.89S FOG
$$

WIZ051-052-058>065-066-070>072-251000-
SOUTHEAST WISCONSIN

CITY           SKY/WX    TMP DP  RH WIND       PRES   REMARKS
MILWAUKEE      MOCLDY    56  53  90 W12G21    29.87S
WAUKESHA       CLOUDY    54  52  94 W10G17    29.88R FOG
MILWAUKEE/TIMM CLOUDY    55  52  88 W10G18    29.86S FOG
RACINE         MOCLDY    56  52  86 W13       29.88S
BURLINGTON     MOCLDY    54  53  95 W8        29.89R FOG
KENOSHA        MOCLDY    56  54  93 W8        29.88S FOG
FOND DU LAC    PTCLDY    55  52  89 W9        29.84F
SHEBOYGAN      CLOUDY    56  53  90 W15G22    29.82S
WEST BEND      CLOUDY    55  52  88 W14       29.85S FOG
JUNEAU         CLOUDY    54  53  95 W7        29.87S FOG
$$

LSZ147-162-251000-
LAKE SUPERIOR

STATION/POSITION TIME  TEMP    WIND        PRES    WAVE
                       AIR SEA DIR/SP/G            HT/PER
                 (UTC) (F)     (DEG/KT/KT) (MB)    (FT/S)
W MID LAKE BUOY  0850   52 46  250/ 16/ 17 1005.6F   4/ 5
DEVILS ISLAND    0900   55     250/ 23/ 26 1007.7S
PORT WING        0800   58     240/ 12/ 16 1009.5R
SAXON HARBOR     0800   59     220/  6/ 11 1009.1
$$

LMZ867-665-643>646-251000-
LAKE MICHIGAN

STATION/POSITION TIME  TEMP    WIND        PRES    WAVE
                       AIR SEA DIR/SP/G            HT/PER
                 (UTC) (F)     (DEG/KT/KT) (MB)    (FT/S)
CHAMBERS ISLAND  0800   54     190/  6/ 12 1007.8F
N MID LAKE BUOY  0850   53 51  230/ 12/ 14 1006.9F   4/ 6
NORTHPORT PIER   0800   55     240/  6/ 12 1007.5F
ALGOMA LAKESHORE 0841          280/  7/ 10   N/A
KEWAUNEE LAKESHO 0900   56     280/  8/ 12 1008.0R
SHEBOYGAN LAKESH 0900   57 51  260/ 11/ 12 1009.9F
PORT WASHINGTON  0840   56     280/  6/ 10 1011.2F
ATWATER BUOY     0900   56     270/ 10/ 14 1011.9F
MILWAUKEE LAKESH 0900   57     280/ 13/ 20   N/A
S MID LAKE BUOY  0850   56 54  240/ 12/ 12 1011.3R   1/ 3
KENOSHA   LAKESH 0900   56     270/  5/  9 1011.9S
$$

TC  - TEMPERATURE IN CELSIUS
VSB - VISIBILITY IN STATUTE MILES
WCI - WIND CHILL INDEX
HX  - HEAT INDEX




USA.gov is the U.S. government's official web portal to all federal, state and local government web resources and services.